Regional Weather Roundup
Issued by NWS Portland, ME

Current Version | Previous Version | Text Only | Print | Product List | Glossary Off
Versions: 1 2 3 4 5 6 7 8 9 10 11 12 13 14 15 16 17 18 19 20 21 22 23 24 25 26 27 28 29 30 31 32 33 34 35 36 37 38 39 40 41 42 43 44 45 46 47 48 49 50

000
ASUS41 KGYX 180910
RWRGYX
WEATHER ROUNDUP FOR MAINE AND NEW HAMPSHIRE
NATIONAL WEATHER SERVICE GRAY ME
500 AM EDT SAT APR 18 2015

MEZ002-005-006-010-012-015-018-020-021-024-026-027-029-181000-
MAINE

CITY           SKY/WX    TMP DP  RH WIND       PRES   REMARKS
PORTLAND       CLEAR     47  40  76 W5        29.91R
SANFORD        CLEAR     37  30  75 NE6       29.90R
BAR HARBOR     CLEAR     43  37  81 N7        29.91R
WISCASSET      CLEAR     44  29  55 CALM      29.91R
ROCKLAND       CLEAR     46  36  66 N3        29.89R
FRYEBURG       CLEAR     37  35  92 CALM      29.92R
LEWISTONAUBURN CLEAR     36  28  75 CALM      29.90S
AUGUSTA        CLEAR     44  30  57 NW3       29.91R
WATERVILLE     CLEAR     43  25  49 N6        29.89R
BANGOR         CLEAR     40  30  67 N9        29.93R
GREENVILLE       N/A     31  25  78 CALM      29.90R
MILLINOCKET    CLEAR     33  27  78 NW3       29.95R
HOULTON        CLEAR     28  23  81 CALM      29.91R
PRESQUE ISLE   CLEAR     34  23  64 NW8       29.90S
FRENCHVILLE    CLEAR     32  23  69 NW10      29.90R
CARIBOU        CLEAR     31  24  75 NW8       29.89S
$$

NHZ002-005-008-009-011-012-014-181000-
NEW HAMPSHIRE

CITY           SKY/WX    TMP DP  RH WIND       PRES   REMARKS
PORTSMOUTH     CLEAR     47  44  88 W6        29.89S
ROCHESTER      CLEAR     48  40  73 W3        29.89S
NASHUA         CLEAR     40  39  96 CALM      29.92S
MANCHESTER     CLEAR     43  39  86 CALM      29.90S
CONCORD        PTCLDY    37  36  96 CALM      29.92S FOG
LACONIA        CLEAR     37  36  93 CALM      29.90R
PLYMOUTH       FAIR      33  33 100 CALM      29.92R FOG
BERLIN         CLEAR     29  25  85 CALM      29.92R
WHITEFIELD     CLEAR     30  27  88 CALM      29.93R
JAFFREY        CLEAR     41  39  93 SE6       29.92F
KEENE          PTCLDY    37  36  93 CALM      29.94F
LEBANON        CLEAR     37  35  92 CALM      29.92S
MT WASHINGTON  PTCLDY    27  19  74 NW38        N/A  WCI   9
$$

VTZ005-007-008-181000-
VERMONT

CITY           SKY/WX    TMP DP  RH WIND       PRES   REMARKS
ST JOHNSBURY     N/A     34  32  92 MISG      29.93R
MONTPELIER     FAIR      38  31  76 S3        29.97R
BURLINGTON     PTCLDY    43  30  60 SW5       29.94R
$$

MAZ007-012-024-CTZ003-RIZ002-NYZ038-NYZ072-181000-
SOUTHERN NEW ENGLAND AND NY

CITY           SKY/WX    TMP DP  RH WIND       PRES   REMARKS
BOSTON         CLEAR     51  44  77 NW5       29.91S
WORCESTER      CLEAR     50  41  71 NW14      29.92S
NANTUCKET      LGT RAIN  45  42  89 NW6       29.91F
PROVIDENCE     CLEAR     48  43  82 CALM      29.92S
HARTFORD       CLEAR     46  42  86 W3        29.94R
ALBANY         CLEAR     43  40  89 S5        29.95S
NEW YORK CITY  PTCLDY    58  44  60 CALM      29.96R
$$

ANZ081-ANZ082-ANZ150-NHZ014-MEZ023>029-181000-
COASTAL MARINE OBSERVATIONS

STATION/POSITION TIME  TEMP    WIND        PRES    WAVE
                       AIR SEA DIR/SP/G            HT/PER
                 (UTC) (F)     (DEG/KT/KT) (MB)    (FT/S)
MOUNT DESERT ROC 0900   44     340/ 14/ 15 1012.4R
MATINICUS ROCK   0900   47     360/ 15/ 15 1012.1R
WELLS            0800   51 38  300/  8/ 10 1011.1S
ISLE OF SHOALS   0900   51     290/ 10/ 10 1011.6R
CASHES LEDGE BUO 0850   46 40              1011.7R   3/14
$$

.............KEY..............
   WCI - WIND CHILL
   TC  - TEMPERATURE IN CELSIUS
   VSB - VISIBILITY IN MILES
   HX  - HEAT INDEX
   FAIR- INDICATES FEW OR NO CLOUDS BELOW 12,000 FT, WITH NO
         SIGNIFICANT WEATHER AND/OR OBSTRUCTIONS TO VISIBILITY.




USA.gov is the U.S. government's official web portal to all federal, state and local government web resources and services.